Weather History for Hearne, TX

Change the Weather History Date:

Thursday, July 3, 2014

  Actual Average (KCLL) Record (KCLL)
Temperature  
Mean Temperature 84 °F 84 °F  
Max Temperature 96 °F 94 °F 103 °F (2009)
Min Temperature 73 °F 74 °F 63 °F (1924)
Degree Days  
Heating Degree Days 0 0  
Month to date heating degree days 0  
Since 1 June heating degree days 0  
Since 1 July heating degree days 0  
Cooling Degree Days 20 19  
Month to date cooling degree days 57  
Year to date cooling degree days 1161  
Since 1 June cooling degree days 573  
Growing Degree Days 34 (Base 50)    
Moisture  
Dew Point 75 °F    
Average Humidity 80    
Maximum Humidity 96    
Minimum Humidity 49    
Precipitation  
Precipitation 0.15 in 0.09 in 1.42 in (1940)
Month to date precipitation 0.27  
Year to date precipitation 20.97  
Sea Level Pressure  
Sea Level Pressure 30.10 in    
Wind  
Wind Speed 1 mph (NE)    
Max Wind Speed 13 mph    
Max Gust Speed 22 mph    
Visibility 9 miles    
Events Rain , Thunderstorm    
T = Trace of Precipitation, MM = Missing Value Source: NWS Daily Summary

Daily Weather History Graph

Daily Weather History Graph

Search for Another Location

Airport:

Trip Planner

Search our weather history database for the weather conditions in past years. The results will help you decide how hot, cold, wet, or windy it might be!

Date:

Astronomy

Jul. 03, 2014 Rise Set
Actual Time 6:27 AM CDT 8:33 PM CDT
Civil Twilight 6:00 AM CDT 9:01 PM CDT
Nautical Twilight 5:26 AM CDT 9:34 PM CDT
Astronomical Twilight 4:50 AM CDT 10:10 PM CDT
Moon 12:03 PM CDT (7/3) No Moon Set
Length of Visible Light 15h 01m
Length of Day
14h 05m
Waxing Crescent, 33% of the Moon is Illuminated
Jul 3
Waxing Crescent
Jul 5
First Quarter
Jul 12
Full
Jul 18
Last Quarter
Jul 26
New

Hourly Weather History & Observations

Time (CDT) Temp. Heat Index Dew Point Humidity Pressure Visibility Wind Dir Wind Speed Gust Speed Precip Events Conditions
12:15 AM 81.3 °F 87.0 °F 74.3 °F 79% 30.06 in 10.0 mi Calm Calm - N/A   Clear
12:35 AM 80.8 °F 86.1 °F 74.3 °F 81% 30.06 in 10.0 mi Calm Calm - N/A   Clear
12:55 AM 80.1 °F 84.6 °F 74.3 °F 82% 30.07 in 10.0 mi Calm Calm - N/A   Clear
1:15 AM 80.1 °F 84.6 °F 74.3 °F 82% 30.07 in 10.0 mi Calm Calm - N/A   Clear
1:35 AM 79.9 °F - 74.5 °F 83% 30.07 in 10.0 mi Calm Calm - N/A   Clear
1:55 AM 78.8 °F - 74.3 °F 86% 30.07 in 10.0 mi Calm Calm - N/A   Clear
2:15 AM 78.8 °F - 74.7 °F 87% 30.07 in 10.0 mi East 4.6 mph - N/A   Clear
2:35 AM 79.9 °F - 74.8 °F 85% 30.07 in 10.0 mi Calm Calm - N/A   Clear
2:55 AM 78.6 °F - 74.8 °F 88% 30.07 in 10.0 mi Calm Calm - N/A   Clear
3:15 AM 78.4 °F - 74.7 °F 88% 30.07 in 10.0 mi Calm Calm - N/A   Clear
3:35 AM 77.9 °F - 74.7 °F 90% 30.06 in 10.0 mi Calm Calm - N/A   Clear
3:55 AM 78.1 °F - 74.8 °F 90% 30.06 in 10.0 mi Calm Calm - N/A   Clear
4:15 AM 77.2 °F - 74.5 °F 91% 30.07 in 10.0 mi Calm Calm - N/A   Clear
4:35 AM 76.5 °F - 74.3 °F 93% 30.07 in 7.0 mi Calm Calm - N/A   Clear
4:55 AM 76.3 °F - 74.3 °F 94% 30.07 in 10.0 mi Calm Calm - N/A   Clear
5:15 AM 76.3 °F - 74.5 °F 94% 30.08 in 7.0 mi Calm Calm - N/A   Clear
5:35 AM 76.5 °F - 74.7 °F 94% 30.08 in 7.0 mi Calm Calm - N/A   Clear
5:55 AM 76.3 °F - 74.7 °F 95% 30.09 in 7.0 mi Calm Calm - N/A   Clear
6:15 AM 75.6 °F - 74.1 °F 95% 30.09 in 7.0 mi Calm Calm - N/A   Clear
6:35 AM 76.1 °F - 74.5 °F 95% 30.10 in 7.0 mi Calm Calm - N/A   Clear
6:55 AM 75.6 °F - 74.3 °F 96% 30.11 in 7.0 mi Calm Calm - N/A   Clear
7:15 AM 76.5 °F - 75.0 °F 95% 30.11 in 7.0 mi Calm Calm - N/A   Clear
7:35 AM 77.5 °F - 75.7 °F 94% 30.11 in 7.0 mi Calm Calm - N/A   Clear
7:55 AM 78.8 °F - 76.3 °F 92% 30.11 in 7.0 mi Calm Calm - N/A   Clear
8:15 AM 80.6 °F 86.9 °F 76.6 °F 88% 30.11 in 7.0 mi Calm Calm - N/A   Clear
8:35 AM 81.9 °F 89.7 °F 77.0 °F 85% 30.12 in 7.0 mi Calm Calm - N/A   Clear
8:55 AM 83.7 °F 93.1 °F 77.0 °F 80% 30.12 in 10.0 mi West 3.5 mph - N/A   Clear
9:15 AM 85.3 °F 95.8 °F 77.0 °F 76% 30.13 in 10.0 mi Calm Calm - N/A   Clear
9:35 AM 86.4 °F 97.4 °F 76.6 °F 73% 30.13 in 7.0 mi Calm Calm - N/A   Clear
9:55 AM 87.4 °F 97.2 °F 75.4 °F 67% 30.13 in 10.0 mi Calm Calm - N/A   Clear
10:15 AM 89.1 °F 97.5 °F 73.4 °F 60% 30.12 in 10.0 mi WNW 3.5 mph - N/A   Clear
10:35 AM 89.6 °F 97.7 °F 72.9 °F 58% 30.12 in 10.0 mi Calm Calm - N/A   Scattered Clouds
11:15 AM 91.2 °F 102.0 °F 74.8 °F 59% 30.12 in 10.0 mi WNW 3.5 mph - N/A   Clear
11:35 AM 92.7 °F 103.7 °F 74.8 °F 56% 30.12 in 10.0 mi Calm Calm - N/A   Scattered Clouds
11:55 AM 91.4 °F 101.3 °F 74.5 °F 57% 30.13 in 10.0 mi Calm Calm - N/A   Mostly Cloudy
12:15 PM 92.1 °F 103.6 °F 75.6 °F 58% 30.13 in 10.0 mi Calm Calm - N/A   Mostly Cloudy
12:35 PM 92.8 °F 105.5 °F 75.9 °F 58% 30.13 in 10.0 mi North 3.5 mph - N/A   Mostly Cloudy
12:55 PM 92.3 °F 105.5 °F 76.5 °F 60% 30.13 in 10.0 mi Calm Calm - N/A   Mostly Cloudy
1:15 PM 91.6 °F 102.9 °F 75.6 °F 59% 30.12 in 10.0 mi Calm Calm - N/A   Overcast
1:35 PM 92.3 °F 104.8 °F 76.1 °F 59% 30.12 in 10.0 mi Calm Calm - N/A   Overcast
1:55 PM 93.9 °F 108.4 °F 77.0 °F 58% 30.11 in 10.0 mi Calm Calm - N/A   Scattered Clouds
2:15 PM 93.6 °F 105.2 °F 75.0 °F 55% 30.10 in 10.0 mi East 4.6 mph - N/A   Scattered Clouds
2:35 PM 92.8 °F 104.1 °F 75.0 °F 56% 30.10 in 10.0 mi ENE 5.8 mph - N/A   Mostly Cloudy
2:55 PM 91.0 °F 101.6 °F 75.0 °F 59% 30.09 in 10.0 mi North 5.8 mph - N/A   Scattered Clouds
3:15 PM 91.8 °F 105.4 °F 77.0 °F 62% 30.07 in 10.0 mi NNW 6.9 mph - N/A   Light Drizzle
3:35 PM 93.9 °F 106.9 °F 75.9 °F 56% 30.07 in 10.0 mi NNW 4.6 mph - N/A   Clear
3:55 PM 95.2 °F 106.4 °F 74.5 °F 51% 30.06 in 10.0 mi North 3.5 mph - N/A Thunderstorm Clear
4:15 PM 96.3 °F 107.5 °F 74.5 °F 49% 30.05 in 10.0 mi Calm Calm - N/A Thunderstorm Clear
4:35 PM 96.4 °F 110.3 °F 76.1 °F 52% 30.06 in 10.0 mi NNE 5.8 mph - N/A Thunderstorm Mostly Cloudy
4:55 PM 85.5 °F 92.6 °F 73.2 °F 67% 30.06 in 7.0 mi NNE 12.7 mph 21.9 mph N/A Rain Heavy Rain
5:15 PM 79.9 °F - 74.5 °F 83% 30.09 in 3.0 mi ENE 9.2 mph - 0.11 in Rain , Thunderstorm Thunderstorms and Rain
7:15 PM 75.9 °F - 72.7 °F 90% 30.17 in 10.0 mi ESE 5.8 mph - N/A Rain , Thunderstorm Light Thunderstorms and Rain
7:35 PM 75.9 °F - 73.4 °F 92% 30.16 in 10.0 mi ESE 3.5 mph - N/A Rain , Thunderstorm Light Thunderstorms and Rain
7:55 PM 75.9 °F - 73.8 °F 93% 30.15 in 7.0 mi Calm Calm - 0.01 in Rain , Thunderstorm Thunderstorms and Rain
8:15 PM 76.1 °F - 74.3 °F 94% 30.14 in 10.0 mi Calm Calm - N/A Rain , Thunderstorm Thunderstorms and Rain
8:35 PM 75.7 °F - 74.1 °F 95% 30.14 in 10.0 mi ESE 4.6 mph - 0.01 in Rain Light Rain
8:55 PM 75.4 °F - 74.3 °F 96% 30.13 in 10.0 mi SE 4.6 mph - 0.02 in Rain Light Rain
9:15 PM 75.2 °F - 73.8 °F 95% 30.11 in 10.0 mi ENE 4.6 mph - N/A Rain Light Rain
9:35 PM 73.8 °F - 72.5 °F 96% 30.12 in 10.0 mi East 3.5 mph - N/A Rain Light Rain
9:55 PM 73.9 °F - 72.5 °F 95% 30.13 in 10.0 mi Calm Calm - N/A Rain Light Rain
10:15 PM 74.1 °F - 72.5 °F 95% 30.13 in 10.0 mi Calm Calm - 0.01 in   Light Drizzle
10:35 PM 74.3 °F - 72.5 °F 94% 30.13 in 10.0 mi Calm Calm - 0.01 in   Scattered Clouds
10:55 PM 74.5 °F - 72.7 °F 94% 30.13 in 10.0 mi SSE 3.5 mph - 0.01 in   Clear
11:15 PM 74.3 °F - 72.5 °F 94% 30.14 in 10.0 mi Calm Calm - N/A   Clear
11:35 PM 74.5 °F - 72.9 °F 95% 30.14 in 10.0 mi Calm Calm - N/A   Clear
11:55 PM 73.9 °F - 72.5 °F 95% 30.14 in 10.0 mi Calm Calm - N/A   Clear